Theta_e
341 341 340 339 338 336 334 334 334 336 335 334 333 331 331 326 325 325 322 319 319 317 316 316 315 314 314 313 312 313 313 313 315 315 315 314 312 313 316 316 314 313 314
338 339 339 338 337 337 336 336 334 331 328 329 326 325 323 322 320 318 318 316 316 317 316 316 315 314 314 314 313 313 313 313 313 317 318 318 317 317 315 313 315 314 314
333 333 334 335 334 333 332 328 325 324 324 323 323 322 322 319 319 319 318 321 320 319 320 320 320 320 319 318 318 318 318 318 318 318 318 316 316 316 315 314 313 313 313
336 332 332 333 332 328 325 323 323 322 321 321 320 319 319 318 318 318 319 319 318 317 317 317 316 315 316 317 317 316 315 316 314 314 314 313 313 312 312 312 311 311 310
332 331 330 328 327 326 324 323 322 320 320 319 318 316 317 317 315 316 316 315 316 315 315 312 308 308 308 308 309 309 309 309 310 310 310 310 310 309 310 309 309 310 309
330 328 327 325 323 321 320 320 319 318 317 317 317 316 315 312 307 305 309 310 310 310 311 311 310 309 309 307 305 304 304 305 308 307 307 308 309 308 308 308 308 308 308
328 326 326 324 321 319 318 318 318 318 316 315 313 311 308 303 302 302 304 308 308 308 309 309 308 307 307 308 308 308 308 306 304 305 307 307 307 307 307 307 307 307 307
322 320 320 321 320 319 319 318 317 316 314 313 311 307 303 302 302 303 306 307 307 307 307 307 307 305 302 305 307 307 307 307 305 305 305 305 305 303 304 305 306 306 307
323 322 322 321 320 321 318 317 316 315 313 310 308 303 303 303 302 305 307 307 307 307 305 302 305 304 301 302 307 307 306 305 306 306 306 305 306 305 306 305 306 306 306
321 321 320 319 320 320 318 316 315 312 310 308 304 303 303 303 303 304 307 307 307 307 306 306 302 302 302 301 304 305 304 304 307 307 306 306 306 306 306 306 305 305 304
317 315 316 318 319 318 316 315 313 310 308 304 306 304 303 306 304 303 304 307 307 307 306 306 304 302 302 302 302 302 302 305 307 306 306 307 305 305 306 304 304 304 304
316 314 315 313 316 315 314 312 310 308 308 307 307 307 307 307 304 304 304 303 304 308 307 306 305 303 303 303 302 301 304 306 306 307 307 306 306 305 305 305 305 305 305
315 314 315 314 314 315 314 312 311 310 309 307 307 307 307 307 308 307 306 304 304 305 305 304 303 304 304 304 303 303 305 306 306 306 306 305 306 305 306 306 305 305 306
316 315 315 315 315 314 313 312 310 311 310 307 308 308 308 309 309 308 308 308 307 306 307 306 305 305 305 305 305 305 305 305 306 306 306 306 305 306 305 306 306 306 306
313 315 311 311 313 313 313 312 311 311 310 310 310 309 308 309 307 306 306 306 305 305 305 306 306 306 305 304 304 305 305 306 305 304 306 305 306 305 305 305 306 306 306
317 317 310 310 310 311 311 310 307 307 306 306 306 305 307 306 306 306 305 305 305 305 306 306 305 305 305 304 304 304 304 305 305 304 304 306 305 305 305 306 307 306 306
317 315 310 308 311 311 311 311 311 308 306 306 306 306 306 306 307 306 305 306 305 305 305 306 305 304 304 303 303 303 304 305 305 305 304 305 306 305 305 305 305 306 306
314 314 311 309 308 310 310 308 309 311 311 310 308 306 304 303 303 305 305 304 305 305 305 304 304 303 303 303 303 303 304 305 305 305 305 304 306 304 305 306 305 305 306
313 312 312 313 311 310 309 310 310 310 310 309 308 306 305 303 304 304 304 305 305 304 303 303 302 302 303 303 303 304 304 305 305 305 305 305 305 305 305 306 306 304 305
311 310 311 308 310 311 311 310 310 309 308 307 306 305 304 305 305 304 304 303 303 302 302 301 301 302 302 302 303 304 304 305 305 305 305 305 305 304 305 305 307 305 304
310 310 308 312 311 310 310 309 308 307 306 305 304 300 299 302 303 302 302 301 301 300 300 300 301 302 302 303 303 303 304 304 304 304 304 304 305 304 306 304 306 305 304
312 311 311 311 310 308 307 306 305 304 303 303 303 301 300 301 301 300 300 300 299 299 300 300 301 301 302 302 302 302 303 304 304 304 304 304 304 305 306 305 304 306 304
309 309 308 308 306 304 304 303 302 302 301 302 302 302 302 302 301 301 301 301 300 301 301 300 300 301 301 301 302 301 303 304 305 305 304 304 305 306 307 307 306 306 305
309 307 307 306 306 305 304 303 300 298 300 301 301 301 302 302 302 301 301 301 301 301 300 300 300 300 300 300 301 300 302 303 304 304 304 304 305 306 307 307 307 306 306
309 308 308 307 306 305 303 303 302 301 300 300 300 300 301 301 301 301 301 301 301 301 300 300 299 299 299 299 299 301 301 301 302 303 304 303 304 306 307 307 307 308 307
310 309 309 308 306 305 305 304 304 302 302 301 301 300 300 300 300 300 300 300 300 300 300 299 298 297 297 297 298 298 299 301 302 303 303 303 303 305 305 306 307 307 307
Wind_Speed
12 9 6 6 3 1 1 3 7 6 8 9 10 12 18 21 19 20 20 16 16 16 12 13 12 11 9 9 8 8 6 6 6 1 5 9 11 15 12 13 14 16 13
9 6 4 3 3 4 3 10 12 15 16 18 18 16 15 15 16 17 17 15 15 15 11 10 9 7 6 6 6 6 6 7 5 5 6 8 8 8 11 15 11 12 14
11 11 12 13 12 13 13 16 16 16 17 16 15 16 17 16 15 16 14 14 12 11 9 9 9 8 7 6 4 5 6 6 6 6 8 8 7 10 11 13 13 15 17
10 11 13 14 15 17 16 16 17 16 15 13 14 15 14 13 13 13 12 11 10 11 10 9 9 8 8 7 7 8 9 9 8 8 8 8 10 11 13 14 16 14 18
9 12 13 15 14 13 16 16 17 17 17 16 16 14 12 10 12 11 11 11 11 10 10 11 12 12 10 8 6 9 9 7 8 9 10 11 9 13 15 16 18 18 19
10 13 12 12 14 17 16 15 16 14 14 13 12 11 11 13 12 10 11 13 13 11 10 10 11 11 14 14 14 12 11 10 9 9 10 12 13 15 16 17 19 20 20
10 11 12 12 13 14 15 12 12 12 11 11 12 12 13 15 15 15 15 14 13 13 13 11 8 11 11 10 14 15 15 17 15 12 12 13 16 16 17 18 18 19 20
10 12 13 13 11 12 10 8 9 10 10 11 11 12 13 16 15 18 18 17 16 16 15 14 13 14 15 12 12 11 11 11 15 14 14 15 16 18 18 17 20 21 22
12 12 11 13 11 10 7 8 8 7 8 9 11 12 12 13 13 16 14 13 14 13 14 18 14 14 16 16 12 13 13 15 14 19 18 20 20 19 19 18 16 18 20
14 16 13 9 9 9 8 6 6 8 9 9 11 12 11 12 12 13 12 9 12 10 12 13 18 18 18 19 14 14 17 17 17 17 16 18 18 20 17 17 19 22 23
17 13 9 7 8 7 5 4 6 7 7 9 9 9 9 8 10 10 10 9 7 9 10 11 12 18 20 20 19 18 18 17 15 16 18 19 20 16 16 18 16 18 22
12 9 5 5 5 4 3 4 5 6 7 7 6 5 4 5 8 8 8 7 9 7 9 10 12 16 20 20 19 18 15 16 14 16 18 20 18 19 22 19 17 18 18
7 6 6 5 4 4 5 4 4 5 4 3 2 2 3 5 7 11 9 7 5 6 7 11 13 15 18 16 21 21 16 13 15 16 18 24 18 21 20 22 25 20 23
7 10 6 4 4 4 4 3 3 2 1 1 1 3 4 6 7 9 8 9 9 8 10 11 12 14 15 17 15 13 11 13 14 15 18 19 21 19 20 22 25 21 21
7 7 8 5 4 4 4 4 3 2 3 1 2 4 5 6 8 10 10 7 7 9 9 9 8 11 13 15 12 12 11 13 15 15 16 22 20 22 19 22 21 18 23
5 8 9 6 7 3 3 2 2 3 3 5 6 5 4 9 11 10 8 10 9 8 7 7 8 11 13 14 13 14 11 13 16 16 16 17 20 26 20 20 19 19 18
6 11 12 8 7 3 1 1 1 3 5 6 7 8 9 12 11 7 8 9 8 7 6 7 9 11 12 13 12 12 11 13 16 14 18 17 18 21 20 20 20 19 18
9 11 9 5 4 3 1 3 3 3 3 5 8 8 8 9 9 5 4 4 6 6 6 8 9 9 11 12 12 11 11 12 15 15 15 17 18 20 19 21 19 21 16
5 5 4 4 2 1 3 3 3 3 4 5 8 10 12 10 12 9 5 2 4 5 6 7 8 8 9 10 10 10 12 11 15 14 15 15 20 21 20 18 19 22 18
4 5 4 2 1 1 2 3 4 5 4 3 3 3 5 7 6 5 5 4 4 5 5 6 6 6 8 9 9 10 11 12 14 15 16 15 16 25 19 17 18 19 20
3 2 1 2 1 1 2 2 2 2 2 2 3 7 6 4 4 4 4 4 4 4 4 5 6 6 6 8 9 10 10 11 12 14 13 14 16 19 21 18 16 18 18
0 2 3 2 1 1 1 1 2 2 3 3 3 7 12 7 6 6 6 6 6 6 5 6 5 5 6 7 9 10 10 12 14 15 15 15 16 15 15 17 15 13 17
2 3 4 4 4 4 4 3 3 3 3 4 4 4 6 6 6 6 6 6 6 5 5 5 5 5 7 8 9 10 12 11 13 14 16 14 15 16 16 16 13 11 9
3 5 5 5 5 4 4 3 3 4 5 4 4 4 5 5 5 5 4 4 4 4 5 5 5 6 7 7 8 9 9 13 13 14 16 17 15 16 15 13 13 12 8
5 4 4 3 4 3 3 3 2 2 2 3 3 4 4 4 4 4 4 4 4 4 5 5 6 7 7 8 7 8 9 10 10 11 12 15 16 17 16 15 14 10 10
7 5 5 4 4 3 3 3 2 2 1 1 1 2 2 3 3 3 3 4 4 4 5 5 6 8 8 8 9 9 9 9 9 10 10 12 14 16 15 15 16 14 14
Wind_Direction
60 65 75 78 87 181 224 329 350 41 57 68 76 87 92 88 84 81 77 69 64 67 64 57 56 53 51 46 36 38 37 34 38 301 291 266 258 262 261 268 279 283 285
43 35 22 360 333 336 55 96 90 94 96 95 94 90 82 80 73 70 71 69 67 69 56 55 56 44 27 18 7 342 327 317 309 282 278 270 271 266 272 279 282 277 275
64 66 74 78 73 80 84 97 97 97 95 92 88 85 89 85 77 70 68 68 61 56 49 36 34 19 7 350 349 341 330 331 326 318 304 304 287 287 281 296 291 290 292
69 75 78 86 92 98 100 101 99 99 95 88 89 92 86 77 64 60 58 51 50 47 43 44 41 39 30 19 11 15 4 352 346 335 323 317 308 294 300 299 303 296 291
74 88 94 103 98 100 110 107 100 94 85 81 82 78 72 61 53 52 54 54 54 50 52 46 42 36 32 35 35 23 16 357 341 332 321 314 310 311 305 303 298 297 298
93 94 91 90 102 105 102 99 95 90 85 80 71 60 55 50 41 41 60 61 59 58 51 44 29 33 12 13 14 9 8 17 1 344 329 321 315 309 308 306 302 303 300
88 95 106 107 107 101 97 93 91 83 84 79 71 59 58 63 59 57 61 59 55 53 53 51 41 23 34 23 8 11 359 2 355 355 330 321 316 311 310 308 304 302 295
127 117 117 113 108 101 98 89 85 81 71 68 63 65 74 73 61 62 49 58 57 56 55 50 46 37 35 42 21 13 7 356 346 345 334 325 316 311 308 305 303 300 296
122 120 115 110 108 102 95 89 76 64 67 66 78 82 81 77 69 74 60 49 50 53 50 51 47 33 32 31 17 6 360 350 358 344 355 352 346 342 332 324 312 303 299
114 108 107 101 89 84 83 77 83 80 76 83 90 87 84 73 64 66 71 39 50 43 44 30 26 28 22 14 20 5 356 352 359 1 355 346 338 327 323 320 311 308 303
117 112 88 69 65 66 67 85 96 89 98 95 94 86 77 69 51 45 49 48 48 32 29 21 8 11 10 9 13 357 357 10 1 352 351 346 344 343 342 331 321 314 303
116 96 84 76 63 57 76 111 101 100 103 94 90 79 45 42 27 25 29 41 42 27 12 2 354 360 9 6 1 360 17 16 356 353 352 353 349 344 347 350 344 335 318
71 107 122 83 77 88 108 113 109 109 106 104 80 41 24 9 1 353 6 358 360 19 351 351 355 3 7 360 347 2 13 358 355 356 352 0 347 349 357 355 351 347 340
131 150 129 115 99 99 100 104 125 118 103 93 359 347 349 352 2 356 347 339 333 337 346 343 344 1 356 352 349 351 354 351 358 354 354 350 356 348 353 357 1 11 15
167 172 153 125 102 97 126 142 121 219 197 207 300 307 318 337 332 347 358 344 330 320 329 333 345 347 347 349 354 353 352 349 355 352 352 353 354 354 350 359 7 12 21
214 163 149 132 106 101 113 120 168 243 259 261 272 282 303 291 301 315 326 323 327 327 346 339 347 346 347 350 350 351 353 348 351 354 350 348 349 0 355 4 357 5 9
165 156 153 146 124 130 73 164 216 293 272 289 292 292 290 296 310 298 326 327 314 341 354 346 346 345 344 347 350 349 348 341 353 349 356 349 346 352 358 359 4 8 9
117 149 170 160 158 188 195 334 338 292 289 306 316 325 319 328 332 323 336 5 335 2 350 339 340 339 343 344 347 348 344 344 347 345 349 358 352 353 353 1 4 5 12
126 147 175 155 146 312 305 317 325 334 324 321 319 343 348 354 6 12 28 349 336 342 344 341 337 343 346 345 348 347 347 348 346 350 351 357 5 3 5 2 4 4 12
148 156 159 193 277 259 319 314 317 320 326 330 325 322 315 344 332 331 340 344 339 338 336 338 339 4 349 350 351 349 349 350 352 355 352 352 353 7 3 7 10 1 10
130 161 137 175 164 321 303 318 332 360 5 5 350 347 349 49 357 355 354 352 344 332 331 355 20 358 356 357 359 358 356 351 352 353 353 351 350 351 11 15 16 6 10
307 199 176 197 224 129 114 75 74 55 42 36 25 3 52 45 38 39 34 33 37 42 40 30 21 13 2 1 4 1 358 351 351 358 358 351 354 352 352 16 18 15 15
136 154 150 145 148 111 93 95 79 65 59 64 57 45 45 49 44 45 42 44 42 37 28 21 33 16 5 10 7 5 12 21 12 6 359 345 345 347 347 355 13 12 16
133 141 142 132 135 131 117 100 70 82 88 68 60 53 52 50 47 35 47 39 35 21 18 16 13 9 6 11 4 354 4 6 10 12 16 11 4 355 355 354 357 2 4
170 159 166 159 129 149 124 121 122 111 81 75 69 60 47 49 41 37 35 28 18 20 7 18 6 3 360 3 347 346 354 358 357 1 6 4 355 353 360 360 359 354 359
196 196 192 192 190 177 173 172 174 160 168 112 65 50 49 37 23 25 24 15 16 14 22 14 9 17 16 4 360 356 340 327 344 353 354 3 5 360 357 359 2 3 9